STARLINK-1423 (45710 NORAD) Tracking and Keplerian Element Data

This shows tracking and keplerian element data for the satellite.

Feedback or suggestion? Click here.




ElementValue
Catalog45710
NameSTARLINK-1423
Epoch Orbit568
Epoch Day186.50001157
Epoch Year2020
RAAN20.0329
Inclination52.9993
Eccentricity9.38E-05
Argument of Perigee84.1237
Mean Anonmoly232.3274
Mean Motion15.627554
Decay Rate-0.00046482
L11 45710U 20035BF 20186.50001157 -.00046482 00000-0 -50466-3 0 9993
L22 45710 52.9993 20.0329 0000938 84.1237 232.3274 15.62755400 5684

Live tracking and technical data element details for STARLINK-1423 (NORAD 45710). STARLINK-1423 can be tracked NOW for your location showing map with azimuth and elevation plus other details from your city location.

Track the satellite on the map from your city or location and see movement details for azimuth, elevation, latitude, longitude, range, height, and movement on the map or in text.







IsCatalogInMostPopularTable: catalog: 45710, numindb: 4
Update: records affected: 1



GetName: 45710 STARLINK-1423

Hit Count: updated at: Sun, 05 Jul 2020 15:44:37 GMT